Weather History for KAKO - February, 2014

Change the Weather History Date:

Thursday, February 6, 2014

  Actual Average Record
Temperature  
Mean Temperature -6 °F 30 °F  
Max Temperature 1 °F 41 °F 66 °F (1950)
Min Temperature -13 °F 18 °F -13 °F (2014)
Degree Days  
Heating Degree Days 71    
Month to date heating degree days 374  
Cooling Degree Days 0    
Month to date cooling degree days 0  
Moisture  
Dew Point -11 °F    
Average Humidity 79    
Maximum Humidity 86    
Minimum Humidity 71    
Precipitation  
Precipitation T in 0.02 in 0.04 in (1971)
Month to date precipitation 0.01 0.09  
Year to date precipitation 0.25 0.39  
Sea Level Pressure  
Sea Level Pressure 30.41 in    
Wind  
Wind Speed 8 mph (South)    
Max Wind Speed 15 mph    
Max Gust Speed 19 mph    
Visibility 9 miles    
Events Snow    
T = Trace of Precipitation, MM = Missing Value Source: NWS Daily Summary

Daily Weather History Graph

Daily Weather History Graph

Search for Another Location

Airport or City:

Trip Planner

Search our weather history database for the weather conditions in past years. The results will help you decide how hot, cold, wet, or windy it might be!

Date:

Astronomy

Feb. 06, 2014 Rise Set
Actual Time 6:56 AM MST 5:17 PM MST
Civil Twilight 6:28 AM MST 5:46 PM MST
Nautical Twilight 5:56 AM MST 6:18 PM MST
Astronomical Twilight 5:24 AM MST 6:50 PM MST
Moon 10:51 AM MST (2/6) 12:14 AM MST (2/6)
Length of Visible Light 11h 18m
Length of Day
10h 21m
Waxing Crescent, 50% of the Moon is Illuminated
Feb 6
Waxing Crescent
Feb 6
First Quarter
Feb 14
Full
Feb 22
Last Quarter
Mar 1
New

Hourly Weather History & Observations

Time (MST) Temp. Windchill Dew Point Humidity Pressure Visibility Wind Dir Wind Speed Gust Speed Precip Events Conditions
12:53 AM -8.0 °F -26.1 °F -11.9 °F 83% 30.59 in 10.0 mi SSE 10.4 mph - N/A   Mostly Cloudy
1:53 AM -11.0 °F -27.6 °F -15.0 °F 83% 30.59 in 10.0 mi SE 8.1 mph - N/A   Partly Cloudy
2:53 AM -11.0 °F -26.2 °F -15.0 °F 83% 30.59 in 10.0 mi SE 6.9 mph - N/A   Clear
3:53 AM -9.9 °F -26.3 °F -14.1 °F 82% 30.57 in 9.0 mi SE 8.1 mph - N/A   Overcast
4:53 AM -9.0 °F -25.2 °F -13.0 °F 83% 30.56 in 4.0 mi SE 8.1 mph - 0.00 in Snow Light Snow
5:08 AM -8.0 °F -21.0 °F -13.0 °F 79% 30.19 in 6.0 mi SE 5.8 mph - 0.00 in Snow Light Snow
5:53 AM -8.0 °F -22.5 °F -11.9 °F 83% 30.55 in 7.0 mi SE 6.9 mph - 0.00 in Snow Light Snow
6:53 AM -7.1 °F -19.9 °F -11.0 °F 83% 30.54 in 8.0 mi SE 5.8 mph - 0.00 in   Overcast
7:53 AM -2.9 °F -20.8 °F -8.0 °F 79% 30.52 in 9.0 mi South 11.5 mph - N/A   Overcast
8:12 AM -6.0 °F -21.5 °F -11.9 °F 75% 30.17 in 6.0 mi SW 8.1 mph - N/A   Haze
8:27 AM -8.0 °F -23.9 °F -13.0 °F 79% 30.17 in 9.0 mi SW 8.1 mph - N/A   Mostly Cloudy
8:53 AM -8.0 °F -25.0 °F -14.1 °F 75% 30.54 in 10.0 mi SW 9.2 mph - N/A   Clear
9:53 AM -7.1 °F -25.9 °F -11.9 °F 79% 30.51 in 10.0 mi SSW 11.5 mph - N/A   Overcast
10:53 AM -6.0 °F -22.6 °F -11.0 °F 79% 30.50 in 10.0 mi SW 9.2 mph - N/A   Clear
11:53 AM -4.0 °F -19.0 °F -9.0 °F 79% 30.45 in 10.0 mi SW 8.1 mph - N/A   Clear
12:53 PM -2.0 °F -17.7 °F -8.0 °F 76% 30.40 in 10.0 mi SSW 9.2 mph - N/A   Clear
1:53 PM -0.9 °F -15.3 °F -8.0 °F 72% 30.38 in 10.0 mi SSW 8.1 mph - N/A   Clear
2:53 PM -0.0 °F -7.9 °F -7.1 °F 72% 30.35 in 10.0 mi SSW 3.5 mph - N/A   Clear
3:53 PM -0.0 °F -7.9 °F -6.0 °F 76% 30.34 in 10.0 mi SSW 3.5 mph - N/A   Clear
4:53 PM -4.0 °F -12.4 °F -9.9 °F 76% 30.35 in 10.0 mi North 3.5 mph - N/A   Clear
5:53 PM -9.0 °F - -13.0 °F 83% 30.36 in 10.0 mi Calm Calm - N/A   Clear
6:53 PM -4.0 °F -22.1 °F -9.0 °F 79% 30.33 in 10.0 mi South 11.5 mph - N/A   Clear
7:53 PM -6.0 °F -25.5 °F -9.9 °F 83% 30.30 in 10.0 mi South 12.7 mph - N/A   Clear
8:53 PM -8.0 °F -25.0 °F -11.9 °F 83% 30.32 in 10.0 mi SSW 9.2 mph - N/A   Clear
9:53 PM -8.0 °F -26.1 °F -13.0 °F 79% 30.30 in 10.0 mi SSW 10.4 mph - N/A   Clear
10:53 PM -9.9 °F -26.3 °F -14.1 °F 82% 30.29 in 10.0 mi WSW 8.1 mph - N/A   Clear
11:53 PM -11.9 °F -27.3 °F -16.1 °F 82% 30.27 in 10.0 mi West 6.9 mph - N/A   Clear